Retour au catalogue

FENGYUN 1C DEB

ActifPO
NORAD 36696·DEBRIS·🇨🇳 China

Lancé May 10, 1999 depuis Taiyuan Satellite Launch Center

Loading…

Prochains Passages (prochaines 24 heures)

TLE

VieillissantSource: Space-Track

Époque: Sep 7, 2026, 00:44 UTC

1 36696U 99025DZS 26250.03095149  .00002470  00000-0  76517-3 0  9993
2 36696  98.9836 277.5546 0021462 251.0561 108.8301 14.42014969682597

Suivez FENGYUN 1C DEB en temps réel avec AllMySat

Download on the App Store